Location: *
(49.9853°N, 3.5569°E)
Time: 15:01:40
(UTC+00:00)

Cosmos 2263 Rocket - Pass Details

Date: 22 September 2019
Orbit: 824 x 848 km, 71.0° (Epoch: 17 October)

Event Time Altitude Azimuth Distance (km) Brightness Sun altitude
Exits shadow 23:41:57 19° 323° (NW) 1,939 4.4 -39.9°
Maximum altitude 23:42:03 19° 325° (NW) 1,939 4.4 -39.9°
Drops below altitude 10° 23:45:58 10° 9° (N) 2,477 5.3 -39.9°
Sets 23:49:13 0° 27° (NNE) 3,411 6.1 -39.8°
